Time,TemperatureF,DewpointF,PressureIn,WindDirection,WindDirectionDegrees,WindSpeedMPH,WindSpeedGustMPH,Humidity,HourlyPrecipIn,Conditions,Clouds,dailyrainin,SolarRadiationWatts/m^2,SoftwareType,DateUTC
2013-03-01 00:01:00,52.5,37.3,30.24,WSW,248,0.0,0.0,56,0.00,CLR,OVC,0.00,0.0,WeatherDisplay:10.37,2013-03-01 08:01:00,
2013-03-01 00:06:00,52.5,37.3,30.24,WSW,248,1.2,1.2,56,0.00,CLR,OVC,0.00,0.0,WeatherDisplay:10.37,2013-03-01 08:06:00,
2013-03-01 00:11:00,52.3,37.5,30.24,West,270,0.0,0.1,57,0.00,CLR,OVC,0.00,0.0,WeatherDisplay:10.37,2013-03-01 08:11:00,
2013-03-01 00:16:00,52.2,37.4,30.24,WSW,248,0.0,0.0,57,0.00,CLR,OVC,0.00,0.0,WeatherDisplay:10.37,2013-03-01 08:16:00,
2013-03-01 00:21:00,52.0,37.2,30.24,WSW,248,0.0,0.0,57,0.00,CLR,OVC,0.00,0.0,WeatherDisplay:10.37,2013-03-01 08:21:00,
2013-03-01 00:26:00,52.0,37.2,30.24,West,270,0.0,0.0,57,0.00,CLR,OVC,0.00,0.0,WeatherDisplay:10.37,2013-03-01 08:26:00,
2013-03-01 00:31:00,51.8,37.0,30.25,WSW,248,0.0,0.0,57,0.00,CLR,OVC,0.00,0.0,WeatherDisplay:10.37,2013-03-01 08:31:00,
2013-03-01 00:36:00,51.8,37.0,30.25,ESE,112,0.0,0.0,57,0.00,CLR,OVC,0.00,0.0,WeatherDisplay:10.37,2013-03-01 08:36:00,
2013-03-01 00:41:00,51.4,37.1,30.25,South,180,0.0,0.0,58,0.00,CLR,OVC,0.00,0.0,WeatherDisplay:10.37,2013-03-01 08:41:00,
2013-03-01 00:46:00,51.4,37.1,30.25,SSE,158,0.0,0.0,58,0.00,CLR,OVC,0.00,0.0,WeatherDisplay:10.37,2013-03-01 08:46:00,
2013-03-01 00:51:00,51.3,37.0,30.25,WNW,292,0.0,0.0,58,0.00,CLR,OVC,0.00,0.0,WeatherDisplay:10.37,2013-03-01 08:51:00,
2013-03-01 00:56:00,51.3,37.0,30.25,NNE,22,0.0,0.0,58,0.00,CLR,OVC,0.00,0.0,WeatherDisplay:10.37,2013-03-01 08:56:00,
2013-03-01 01:01:00,51.3,37.0,30.25,NNE,22,0.0,0.0,58,0.00,CLR,OVC,0.00,0.0,WeatherDisplay:10.37,2013-03-01 09:01:00,
2013-03-01 01:06:00,51.1,36.8,30.25,NNE,22,0.0,0.0,58,0.00,CLR,OVC,0.00,0.0,WeatherDisplay:10.37,2013-03-01 09:06:00,
2013-03-01 01:11:00,50.9,36.2,30.25,West,270,0.0,0.0,57,0.00,CLR,OVC,0.00,0.0,WeatherDisplay:10.37,2013-03-01 09:11:00,
2013-03-01 01:16:00,50.9,36.6,30.25,South,180,0.0,0.0,58,0.00,CLR,OVC,0.00,0.0,WeatherDisplay:10.37,2013-03-01 09:16:00,
2013-03-01 01:21:00,50.5,36.3,30.25,NE,45,0.0,0.0,58,0.00,CLR,OVC,0.00,0.0,WeatherDisplay:10.37,2013-03-01 09:21:00,
2013-03-01 01:26:00,50.5,36.3,30.25,NW,315,0.0,0.0,58,0.00,CLR,OVC,0.00,0.0,WeatherDisplay:10.37,2013-03-01 09:26:00,
2013-03-01 01:31:00,50.5,36.3,30.25,WSW,248,0.0,0.0,58,0.00,CLR,OVC,0.00,0.0,WeatherDisplay:10.37,2013-03-01 09:31:00,
2013-03-01 01:36:00,50.4,36.1,30.25,South,180,0.0,0.0,58,0.00,CLR,OVC,0.00,0.0,WeatherDisplay:10.37,2013-03-01 09:36:00,
2013-03-01 01:41:00,50.2,36.0,30.25,SSW,202,0.0,0.0,58,0.00,CLR,OVC,0.00,0.0,WeatherDisplay:10.37,2013-03-01 09:41:00,
2013-03-01 01:46:00,50.2,36.0,30.25,WSW,248,0.0,0.0,58,0.00,CLR,OVC,0.00,0.0,WeatherDisplay:10.37,2013-03-01 09:46:00,
2013-03-01 01:51:00,50.0,35.8,30.25,SSE,158,0.0,0.0,58,0.00,CLR,OVC,0.00,0.0,WeatherDisplay:10.37,2013-03-01 09:51:00,
2013-03-01 01:56:00,50.0,36.2,30.25,WSW,248,0.0,0.0,59,0.00,CLR,OVC,0.00,0.0,WeatherDisplay:10.37,2013-03-01 09:56:00,
2013-03-01 02:01:00,49.8,36.1,30.25,NNW,338,0.0,0.0,59,0.00,CLR,OVC,0.00,0.0,WeatherDisplay:10.37,2013-03-01 10:01:00,
2013-03-01 02:06:00,49.8,36.1,30.25,ESE,112,0.0,0.0,59,0.00,CLR,OVC,0.00,0.0,WeatherDisplay:10.37,2013-03-01 10:06:00,
2013-03-01 02:11:00,49.5,35.7,30.25,South,180,0.0,0.0,59,0.00,CLR,OVC,0.00,0.0,WeatherDisplay:10.37,2013-03-01 10:11:00,
2013-03-01 02:16:00,49.3,35.5,30.25,SSW,202,0.0,0.0,59,0.00,CLR,OVC,0.00,0.0,WeatherDisplay:10.37,2013-03-01 10:16:00,
2013-03-01 02:21:00,49.3,35.5,30.25,SW,225,0.0,0.0,59,0.00,CLR,OVC,0.00,0.0,WeatherDisplay:10.37,2013-03-01 10:21:00,
2013-03-01 02:26:00,49.1,35.4,30.25,WSW,248,0.0,0.0,59,0.00,CLR,OVC,0.00,0.0,WeatherDisplay:10.37,2013-03-01 10:26:00,
2013-03-01 02:31:00,48.9,35.2,30.25,NNE,22,0.0,0.0,59,0.00,CLR,OVC,0.00,0.0,WeatherDisplay:10.37,2013-03-01 10:31:00,
2013-03-01 02:36:00,49.1,35.4,30.25,West,270,0.0,0.0,59,0.00,CLR,OVC,0.00,0.0,WeatherDisplay:10.37,2013-03-01 10:36:00,
2013-03-01 02:41:00,48.9,35.2,30.25,ESE,112,0.0,0.0,59,0.00,CLR,OVC,0.00,0.0,WeatherDisplay:10.37,2013-03-01 10:41:00,
2013-03-01 02:46:00,48.7,35.0,30.25,NNE,22,0.0,0.0,59,0.00,CLR,OVC,0.00,0.0,WeatherDisplay:10.37,2013-03-01 10:46:00,
2013-03-01 02:51:00,48.7,35.0,30.25,NE,45,0.0,0.0,59,0.00,CLR,OVC,0.00,0.0,WeatherDisplay:10.37,2013-03-01 10:51:00,
2013-03-01 02:56:00,48.6,34.9,30.25,East,90,0.0,0.0,59,0.00,CLR,OVC,0.00,0.0,WeatherDisplay:10.37,2013-03-01 10:56:00,
2013-03-01 03:01:00,48.4,35.1,30.25,SE,135,0.0,0.0,60,0.00,CLR,OVC,0.00,0.0,WeatherDisplay:10.37,2013-03-01 11:01:00,
2013-03-01 03:06:00,48.4,35.1,30.25,South,180,0.0,0.0,60,0.00,CLR,OVC,0.00,0.0,WeatherDisplay:10.37,2013-03-01 11:06:00,
2013-03-01 03:11:00,48.4,35.1,30.25,NW,315,0.0,0.0,60,0.00,CLR,OVC,0.00,0.0,WeatherDisplay:10.37,2013-03-01 11:11:00,
2013-03-01 03:16:00,48.2,34.5,30.25,ENE,68,0.0,0.0,59,0.00,CLR,OVC,0.00,0.0,WeatherDisplay:10.37,2013-03-01 11:16:00,
2013-03-01 03:21:00,48.0,34.8,30.25,SSW,202,0.0,0.0,60,0.00,CLR,OVC,0.00,0.0,WeatherDisplay:10.37,2013-03-01 11:21:00,
2013-03-01 03:26:00,47.8,34.6,30.25,SE,135,0.0,0.0,60,0.00,CLR,OVC,0.00,0.0,WeatherDisplay:10.37,2013-03-01 11:26:00,
2013-03-01 03:31:00,47.8,34.6,30.24,NNW,338,0.0,0.0,60,0.00,CLR,OVC,0.00,0.0,WeatherDisplay:10.37,2013-03-01 11:31:00,
2013-03-01 03:36:00,47.7,34.4,30.24,NNE,22,0.0,0.0,60,0.00,CLR,OVC,0.00,0.0,WeatherDisplay:10.37,2013-03-01 11:36:00,
2013-03-01 03:41:00,47.7,34.4,30.24,NNE,22,0.0,0.0,60,0.00,CLR,OVC,0.00,0.0,WeatherDisplay:10.37,2013-03-01 11:41:00,
2013-03-01 03:46:00,47.7,34.4,30.24,NW,315,0.0,0.0,60,0.00,CLR,OVC,0.00,0.0,WeatherDisplay:10.37,2013-03-01 11:46:00,
2013-03-01 03:51:00,47.3,34.1,30.24,ESE,112,0.0,0.0,60,0.00,CLR,OVC,0.00,0.0,WeatherDisplay:10.37,2013-03-01 11:51:00,
2013-03-01 03:56:00,47.3,34.1,30.24,East,90,0.0,0.0,60,0.00,CLR,OVC,0.00,0.0,WeatherDisplay:10.37,2013-03-01 11:56:00,
2013-03-01 04:01:00,47.1,33.9,30.24,SSE,158,0.0,0.0,60,0.00,CLR,OVC,0.00,0.0,WeatherDisplay:10.37,2013-03-01 12:01:00,
2013-03-01 04:06:00,47.1,34.4,30.24,SE,135,0.0,0.0,61,0.00,CLR,OVC,0.00,0.0,WeatherDisplay:10.37,2013-03-01 12:06:00,
2013-03-01 04:11:00,46.8,34.0,30.24,ESE,112,0.0,0.0,61,0.00,CLR,OVC,0.00,0.0,WeatherDisplay:10.37,2013-03-01 12:11:00,
2013-03-01 04:16:00,46.8,34.0,30.24,WNW,292,0.0,0.0,61,0.00,CLR,OVC,0.00,0.0,WeatherDisplay:10.37,2013-03-01 12:16:00,
2013-03-01 04:21:00,46.8,34.4,30.24,NW,315,0.0,0.0,62,0.00,CLR,OVC,0.00,0.0,WeatherDisplay:10.37,2013-03-01 12:21:00,
2013-03-01 04:26:00,46.8,34.4,30.24,West,270,0.0,0.0,62,0.00,CLR,OVC,0.00,0.0,WeatherDisplay:10.37,2013-03-01 12:26:00,
2013-03-01 04:31:00,46.6,33.8,30.24,NW,315,0.0,0.0,61,0.00,CLR,OVC,0.00,0.0,WeatherDisplay:10.37,2013-03-01 12:31:00,
2013-03-01 04:36:00,46.6,33.8,30.24,West,270,0.0,0.0,61,0.00,CLR,OVC,0.00,0.0,WeatherDisplay:10.37,2013-03-01 12:36:00,
2013-03-01 04:41:00,46.4,34.1,30.24,WNW,292,0.0,0.0,62,0.00,CLR,OVC,0.00,0.0,WeatherDisplay:10.37,2013-03-01 12:41:00,
2013-03-01 04:46:00,46.4,34.1,30.24,WSW,248,0.0,0.0,62,0.00,CLR,OVC,0.00,0.0,WeatherDisplay:10.37,2013-03-01 12:46:00,
2013-03-01 04:51:00,46.2,33.9,30.24,ENE,68,0.0,0.0,62,0.00,CLR,OVC,0.00,0.0,WeatherDisplay:10.37,2013-03-01 12:51:00,
2013-03-01 04:56:00,46.2,33.9,30.24,NW,315,0.0,0.0,62,0.00,CLR,OVC,0.00,0.0,WeatherDisplay:10.37,2013-03-01 12:56:00,
2013-03-01 05:01:00,46.2,33.9,30.24,West,270,0.0,0.0,62,0.00,CLR,OVC,0.00,0.0,WeatherDisplay:10.37,2013-03-01 13:01:00,
2013-03-01 05:06:00,46.2,33.9,30.24,WSW,248,0.0,0.0,62,0.00,CLR,OVC,0.00,0.0,WeatherDisplay:10.37,2013-03-01 13:06:00,
2013-03-01 05:11:00,46.0,34.1,30.24,West,270,0.0,0.0,63,0.00,CLR,OVC,0.00,0.0,WeatherDisplay:10.37,2013-03-01 13:11:00,
2013-03-01 05:16:00,46.0,34.1,30.24,West,270,0.0,0.0,63,0.00,CLR,OVC,0.00,0.0,WeatherDisplay:10.37,2013-03-01 13:16:00,
2013-03-01 05:21:00,45.9,34.4,30.24,ESE,112,0.0,0.0,64,0.00,CLR,OVC,0.00,0.0,WeatherDisplay:10.37,2013-03-01 13:21:00,
2013-03-01 05:26:00,45.7,34.2,30.24,ENE,68,0.0,0.1,64,0.00,CLR,OVC,0.00,0.0,WeatherDisplay:10.37,2013-03-01 13:26:00,
2013-03-01 05:31:00,45.3,34.2,30.24,ENE,68,0.0,0.1,65,0.00,CLR,OVC,0.00,0.0,WeatherDisplay:10.37,2013-03-01 13:31:00,
2013-03-01 05:36:00,45.0,34.3,30.24,ESE,112,0.0,0.0,66,0.00,CLR,OVC,0.00,0.0,WeatherDisplay:10.37,2013-03-01 13:36:00,
2013-03-01 05:41:00,45.3,34.6,30.24,South,180,0.0,0.0,66,0.00,CLR,OVC,0.00,0.0,WeatherDisplay:10.37,2013-03-01 13:41:00,
2013-03-01 05:46:00,45.3,34.6,30.24,ESE,112,0.0,0.0,66,0.00,CLR,OVC,0.00,0.0,WeatherDisplay:10.37,2013-03-01 13:46:00,
2013-03-01 05:51:00,45.3,34.6,30.24,South,180,0.0,0.0,66,0.00,CLR,OVC,0.00,0.0,WeatherDisplay:10.37,2013-03-01 13:51:00,
2013-03-01 05:56:00,45.3,34.6,30.24,SE,135,0.0,0.0,66,0.00,CLR,OVC,0.00,0.0,WeatherDisplay:10.37,2013-03-01 13:56:00,
2013-03-01 06:01:00,45.1,34.5,30.24,North,0,0.0,0.0,66,0.00,CLR,OVC,0.00,0.0,WeatherDisplay:10.37,2013-03-01 14:01:00,
2013-03-01 06:06:00,45.1,34.5,30.24,NNE,22,0.0,0.0,66,0.00,CLR,OVC,0.00,0.0,WeatherDisplay:10.37,2013-03-01 14:06:00,
2013-03-01 06:11:00,45.0,34.3,30.24,NW,315,0.0,0.0,66,0.00,CLR,OVC,0.00,0.0,WeatherDisplay:10.37,2013-03-01 14:11:00,
2013-03-01 06:16:00,45.0,34.3,30.24,WNW,292,0.0,0.0,66,0.00,CLR,OVC,0.00,0.0,WeatherDisplay:10.37,2013-03-01 14:16:00,
2013-03-01 06:21:00,45.0,34.3,30.24,ENE,68,0.0,0.0,66,0.00,CLR,OVC,0.00,0.0,WeatherDisplay:10.37,2013-03-01 14:21:00,
2013-03-01 06:26:00,44.8,34.1,30.24,East,90,0.0,0.0,66,0.00,CLR,OVC,0.00,0.0,WeatherDisplay:10.37,2013-03-01 14:26:00,
2013-03-01 06:31:00,44.6,34.3,30.25,SE,135,0.0,0.0,67,0.00,CLR,OVC,0.00,0.0,WeatherDisplay:10.37,2013-03-01 14:31:00,
2013-03-01 06:36:00,44.6,34.3,30.25,West,270,0.0,0.0,67,0.00,CLR,OVC,0.00,0.0,WeatherDisplay:10.37,2013-03-01 14:36:00,
2013-03-01 06:41:00,44.6,34.3,30.25,NW,315,0.0,0.0,67,0.00,CLR,OVC,0.00,0.0,WeatherDisplay:10.37,2013-03-01 14:41:00,
2013-03-01 06:46:00,44.4,34.1,30.25,ESE,112,0.0,0.0,67,0.00,CLR,OVC,0.00,0.0,WeatherDisplay:10.37,2013-03-01 14:46:00,
2013-03-01 06:51:00,44.2,34.3,30.25,North,0,0.0,0.0,68,0.00,CLR,OVC,0.00,0.0,WeatherDisplay:10.37,2013-03-01 14:51:00,
2013-03-01 06:56:00,44.4,34.5,30.25,NE,45,0.0,0.0,68,0.00,CLR,OVC,0.00,0.0,WeatherDisplay:10.37,2013-03-01 14:56:00,
2013-03-01 07:01:00,44.4,34.5,30.25,ENE,68,0.0,0.0,68,0.00,CLR,OVC,0.00,0.0,WeatherDisplay:10.37,2013-03-01 15:01:00,
2013-03-01 07:06:00,44.4,34.5,30.25,SE,135,0.0,0.0,68,0.00,CLR,OVC,0.00,0.0,WeatherDisplay:10.37,2013-03-01 15:06:00,
2013-03-01 07:11:00,44.4,34.9,30.24,NW,315,0.0,0.0,69,0.00,CLR,OVC,0.00,0.0,WeatherDisplay:10.37,2013-03-01 15:11:00,
2013-03-01 07:16:00,44.6,34.7,30.24,North,0,0.0,0.0,68,0.00,CLR,OVC,0.00,0.0,WeatherDisplay:10.37,2013-03-01 15:16:00,
2013-03-01 07:21:00,44.6,34.7,30.24,SE,135,0.0,0.0,68,0.00,CLR,OVC,0.00,0.0,WeatherDisplay:10.37,2013-03-01 15:21:00,
2013-03-01 07:26:00,44.8,35.2,30.24,SSW,202,0.0,0.0,69,0.00,CLR,OVC,0.00,0.0,WeatherDisplay:10.37,2013-03-01 15:26:00,
2013-03-01 07:31:00,45.0,35.4,30.24,NNE,22,0.0,0.0,69,0.00,CLR,OVC,0.00,0.0,WeatherDisplay:10.37,2013-03-01 15:31:00,
2013-03-01 07:36:00,45.0,35.8,30.24,East,90,0.0,0.0,70,0.00,CLR,OVC,0.00,0.0,WeatherDisplay:10.37,2013-03-01 15:36:00,
2013-03-01 07:41:00,45.3,36.1,30.24,ENE,68,0.0,0.0,70,0.00,CLR,OVC,0.00,0.0,WeatherDisplay:10.37,2013-03-01 15:41:00,
2013-03-01 07:46:00,45.7,36.8,30.24,ESE,112,0.0,0.0,71,0.00,CLR,OVC,0.00,0.0,WeatherDisplay:10.37,2013-03-01 15:46:00,
2013-03-01 07:51:00,46.4,37.5,30.25,ENE,68,0.0,0.1,71,0.00,CLR,OVC,0.00,0.0,WeatherDisplay:10.37,2013-03-01 15:51:00,
2013-03-01 07:56:00,46.8,37.9,30.25,ENE,68,0.0,0.1,71,0.00,CLR,OVC,0.00,0.0,WeatherDisplay:10.37,2013-03-01 15:56:00,
2013-03-01 08:01:00,47.7,38.7,30.25,ESE,112,1.2,1.2,71,0.00,CLR,OVC,0.00,0.0,WeatherDisplay:10.37,2013-03-01 16:01:00,
2013-03-01 08:06:00,48.2,39.2,30.25,East,90,1.2,1.2,71,0.00,CLR,OVC,0.00,0.0,WeatherDisplay:10.37,2013-03-01 16:06:00,
2013-03-01 08:11:00,49.3,40.3,30.25,WSW,248,1.2,1.2,71,0.00,CLR,OVC,0.00,0.0,WeatherDisplay:10.37,2013-03-01 16:11:00,
2013-03-01 08:16:00,49.6,40.6,30.25,WSW,248,0.0,0.8,71,0.00,CLR,OVC,0.00,0.0,WeatherDisplay:10.37,2013-03-01 16:16:00,
2013-03-01 08:21:00,50.5,41.5,30.25,ESE,112,0.0,0.2,71,0.00,CLR,OVC,0.00,0.0,WeatherDisplay:10.37,2013-03-01 16:21:00,
2013-03-01 08:26:00,51.1,41.6,30.25,NE,45,1.2,1.2,70,0.00,CLR,OVC,0.00,0.0,WeatherDisplay:10.37,2013-03-01 16:26:00,
2013-03-01 08:31:00,52.0,42.1,30.25,NNE,22,0.0,0.2,69,0.00,CLR,OVC,0.00,0.0,WeatherDisplay:10.37,2013-03-01 16:31:00,
2013-03-01 08:36:00,52.5,42.3,30.25,NNW,338,1.2,1.2,68,0.00,CLR,OVC,0.00,0.0,WeatherDisplay:10.37,2013-03-01 16:36:00,
2013-03-01 08:41:00,53.6,42.5,30.25,NE,45,0.0,0.2,66,0.00,CLR,OVC,0.00,0.0,WeatherDisplay:10.37,2013-03-01 16:41:00,
2013-03-01 08:46:00,54.3,42.8,30.25,SE,135,0.0,0.1,65,0.00,CLR,OVC,0.00,0.0,WeatherDisplay:10.37,2013-03-01 16:46:00,
2013-03-01 08:51:00,55.4,43.0,30.25,SSW,202,0.0,0.2,63,0.00,CLR,OVC,0.00,0.0,WeatherDisplay:10.37,2013-03-01 16:51:00,
2013-03-01 08:56:00,56.1,43.3,30.25,SSW,202,2.3,2.3,62,0.00,CLR,OVC,0.00,0.0,WeatherDisplay:10.37,2013-03-01 16:56:00,
2013-03-01 09:01:00,56.8,43.1,30.25,WSW,248,1.2,1.2,60,0.00,CLR,OVC,0.00,0.0,WeatherDisplay:10.37,2013-03-01 17:01:00,
2013-03-01 09:06:00,57.7,43.5,30.25,NNE,22,0.0,0.2,59,0.00,CLR,OVC,0.00,0.0,WeatherDisplay:10.37,2013-03-01 17:06:00,
2013-03-01 09:11:00,58.1,43.4,30.25,NNE,22,2.3,2.3,58,0.00,CLR,OVC,0.00,0.0,WeatherDisplay:10.37,2013-03-01 17:11:00,
2013-03-01 09:16:00,58.8,43.6,30.25,ENE,68,0.0,0.3,57,0.00,CLR,OVC,0.00,0.0,WeatherDisplay:10.37,2013-03-01 17:16:00,
2013-03-01 09:21:00,59.7,44.0,30.25,West,270,1.2,1.2,56,0.00,CLR,OVC,0.00,0.0,WeatherDisplay:10.37,2013-03-01 17:21:00,
2013-03-01 09:26:00,60.3,44.0,30.25,NNW,338,1.2,1.2,55,0.00,CLR,OVC,0.00,0.0,WeatherDisplay:10.37,2013-03-01 17:26:00,
2013-03-01 09:31:00,60.6,43.9,30.23,NNW,338,1.2,1.2,54,0.00,CLR,OVC,0.00,0.0,WeatherDisplay:10.37,2013-03-01 17:31:00,
2013-03-01 09:36:00,61.0,42.7,30.23,NNW,338,2.3,2.3,51,0.00,CLR,OVC,0.00,0.0,WeatherDisplay:10.37,2013-03-01 17:36:00,
2013-03-01 09:41:00,61.3,42.5,30.23,WSW,248,2.3,2.3,50,0.00,CLR,OVC,0.00,0.0,WeatherDisplay:10.37,2013-03-01 17:41:00,
2013-03-01 09:46:00,61.9,43.0,30.23,SW,225,3.5,3.5,50,0.00,CLR,OVC,0.00,0.0,WeatherDisplay:10.37,2013-03-01 17:46:00,
2013-03-01 09:51:00,62.2,42.8,30.22,NW,315,2.3,2.3,49,0.00,CLR,OVC,0.00,0.0,WeatherDisplay:10.37,2013-03-01 17:51:00,
2013-03-01 09:56:00,62.6,42.6,30.22,WNW,292,3.5,3.5,48,0.00,CLR,OVC,0.00,0.0,WeatherDisplay:10.37,2013-03-01 17:56:00,
2013-03-01 10:01:00,63.1,43.1,30.22,WNW,292,1.2,1.7,48,0.00,CLR,OVC,0.00,0.0,WeatherDisplay:10.37,2013-03-01 18:01:00,
2013-03-01 10:06:00,63.7,43.6,30.22,NW,315,3.5,3.5,48,0.00,CLR,OVC,0.00,0.0,WeatherDisplay:10.37,2013-03-01 18:06:00,
2013-03-01 10:11:00,63.3,42.7,30.22,NW,315,2.3,2.4,47,0.00,CLR,OVC,0.00,0.0,WeatherDisplay:10.37,2013-03-01 18:11:00,
2013-03-01 10:16:00,64.0,43.4,30.22,NW,315,2.3,2.3,47,0.00,CLR,OVC,0.00,0.0,WeatherDisplay:10.37,2013-03-01 18:16:00,
2013-03-01 10:21:00,64.9,43.7,30.22,WSW,248,2.3,2.3,46,0.00,CLR,OVC,0.00,0.0,WeatherDisplay:10.37,2013-03-01 18:21:00,
2013-03-01 10:26:00,65.3,44.0,30.22,WSW,248,3.5,3.5,46,0.00,CLR,OVC,0.00,0.0,WeatherDisplay:10.37,2013-03-01 18:26:00,
2013-03-01 10:31:00,65.7,43.7,30.22,West,270,1.2,2.3,45,0.00,CLR,OVC,0.00,0.0,WeatherDisplay:10.37,2013-03-01 18:31:00,
2013-03-01 10:36:00,65.8,43.3,30.22,WSW,248,2.3,2.3,44,0.00,CLR,OVC,0.00,0.0,WeatherDisplay:10.37,2013-03-01 18:36:00,
2013-03-01 10:41:00,66.2,43.6,30.22,West,270,3.5,3.5,44,0.00,CLR,OVC,0.00,0.0,WeatherDisplay:10.37,2013-03-01 18:41:00,
2013-03-01 10:46:00,66.2,42.4,30.22,NW,315,4.6,4.6,42,0.00,CLR,OVC,0.00,0.0,WeatherDisplay:10.37,2013-03-01 18:46:00,
2013-03-01 10:51:00,65.8,40.8,30.21,NNW,338,3.5,3.7,40,0.00,CLR,OVC,0.00,0.0,WeatherDisplay:10.37,2013-03-01 18:51:00,
2013-03-01 10:56:00,65.8,40.8,30.21,ENE,68,5.8,5.8,40,0.00,CLR,OVC,0.00,0.0,WeatherDisplay:10.37,2013-03-01 18:56:00,
2013-03-01 11:01:00,65.8,40.2,30.21,NW,315,6.9,6.9,39,0.00,CLR,OVC,0.00,0.0,WeatherDisplay:10.37,2013-03-01 19:01:00,
2013-03-01 11:06:00,66.2,41.2,30.21,North,0,2.3,3.6,40,0.00,CLR,OVC,0.00,0.0,WeatherDisplay:10.37,2013-03-01 19:06:00,
2013-03-01 11:11:00,66.9,41.8,30.20,NNW,338,2.3,3.1,40,0.00,CLR,OVC,0.00,0.0,WeatherDisplay:10.37,2013-03-01 19:11:00,
2013-03-01 11:16:00,67.3,41.5,30.20,West,270,6.9,6.9,39,0.00,CLR,OVC,0.00,0.0,WeatherDisplay:10.37,2013-03-01 19:16:00,
2013-03-01 11:21:00,66.9,40.5,30.20,NW,315,6.9,6.9,38,0.00,CLR,OVC,0.00,0.0,WeatherDisplay:10.37,2013-03-01 19:21:00,
2013-03-01 11:26:00,67.3,41.5,30.20,NW,315,6.9,6.9,39,0.00,CLR,OVC,0.00,0.0,WeatherDisplay:10.37,2013-03-01 19:26:00,
2013-03-01 11:31:00,67.6,41.1,30.20,North,0,4.6,4.6,38,0.00,CLR,OVC,0.00,0.0,WeatherDisplay:10.37,2013-03-01 19:31:00,
2013-03-01 11:36:00,67.5,40.3,30.20,West,270,4.6,4.6,37,0.00,CLR,OVC,0.00,0.0,WeatherDisplay:10.37,2013-03-01 19:36:00,
2013-03-01 11:41:00,67.8,40.6,30.20,North,0,3.5,3.6,37,0.00,CLR,OVC,0.00,0.0,WeatherDisplay:10.37,2013-03-01 19:41:00,
2013-03-01 11:46:00,68.0,40.7,30.20,NNW,338,6.9,6.9,37,0.00,CLR,OVC,0.00,0.0,WeatherDisplay:10.37,2013-03-01 19:46:00,
2013-03-01 11:51:00,68.0,40.0,30.20,NW,315,3.5,3.8,36,0.00,CLR,OVC,0.00,0.0,WeatherDisplay:10.37,2013-03-01 19:51:00,
2013-03-01 11:56:00,68.4,40.4,30.20,NNW,338,5.8,5.8,36,0.00,CLR,OVC,0.00,0.0,WeatherDisplay:10.37,2013-03-01 19:56:00,
2013-03-01 12:01:00,69.3,41.2,30.20,ENE,68,0.0,2.6,36,0.00,CLR,OVC,0.00,0.0,WeatherDisplay:10.37,2013-03-01 20:01:00,
2013-03-01 12:06:00,69.8,41.6,30.20,NW,315,3.5,3.5,36,0.00,CLR,OVC,0.00,0.0,WeatherDisplay:10.37,2013-03-01 20:06:00,
2013-03-01 12:11:00,69.8,40.9,30.18,NW,315,2.3,2.6,35,0.00,CLR,OVC,0.00,0.0,WeatherDisplay:10.37,2013-03-01 20:11:00,
2013-03-01 12:16:00,69.3,40.4,30.18,NW,315,4.6,4.6,35,0.00,CLR,OVC,0.00,0.0,WeatherDisplay:10.37,2013-03-01 20:16:00,
2013-03-01 12:21:00,70.2,40.5,30.18,North,0,8.1,8.1,34,0.00,CLR,OVC,0.00,0.0,WeatherDisplay:10.37,2013-03-01 20:21:00,
2013-03-01 12:26:00,70.3,39.1,30.18,NW,315,5.8,5.8,32,0.00,CLR,OVC,0.00,0.0,WeatherDisplay:10.37,2013-03-01 20:26:00,
2013-03-01 12:31:00,70.3,39.1,30.18,NNE,22,4.6,4.6,32,0.00,CLR,OVC,0.00,0.0,WeatherDisplay:10.37,2013-03-01 20:31:00,
2013-03-01 12:36:00,70.5,39.2,30.18,NW,315,3.5,3.5,32,0.00,CLR,OVC,0.00,0.0,WeatherDisplay:10.37,2013-03-01 20:36:00,
2013-03-01 12:41:00,70.7,39.4,30.18,NW,315,2.3,3.2,32,0.00,CLR,OVC,0.00,0.0,WeatherDisplay:10.37,2013-03-01 20:41:00,
2013-03-01 12:46:00,70.5,38.4,30.18,West,270,6.9,6.9,31,0.00,CLR,OVC,0.00,0.0,WeatherDisplay:10.37,2013-03-01 20:46:00,
2013-03-01 12:51:00,70.5,38.4,30.16,NNW,338,4.6,4.6,31,0.00,CLR,OVC,0.00,0.0,WeatherDisplay:10.37,2013-03-01 20:51:00,
2013-03-01 12:56:00,70.5,38.4,30.16,WNW,292,6.9,6.9,31,0.00,CLR,OVC,0.00,0.0,WeatherDisplay:10.37,2013-03-01 20:56:00,
2013-03-01 13:01:00,71.1,38.9,30.16,NNE,22,3.5,3.9,31,0.00,CLR,OVC,0.00,0.0,WeatherDisplay:10.37,2013-03-01 21:01:00,
2013-03-01 13:06:00,71.2,39.0,30.16,NNW,338,3.5,3.6,31,0.00,CLR,OVC,0.00,0.0,WeatherDisplay:10.37,2013-03-01 21:06:00,
2013-03-01 13:11:00,71.4,39.2,30.15,WNW,292,6.9,6.9,31,0.00,CLR,OVC,0.00,0.0,WeatherDisplay:10.37,2013-03-01 21:11:00,
2013-03-01 13:16:00,71.4,38.4,30.15,WNW,292,5.8,5.8,30,0.00,CLR,OVC,0.00,0.0,WeatherDisplay:10.37,2013-03-01 21:16:00,
2013-03-01 13:21:00,71.2,39.0,30.15,WSW,248,4.6,4.6,31,0.00,CLR,OVC,0.00,0.0,WeatherDisplay:10.37,2013-03-01 21:21:00,
2013-03-01 13:26:00,71.8,38.7,30.15,West,270,3.5,3.5,30,0.00,CLR,OVC,0.00,0.0,WeatherDisplay:10.37,2013-03-01 21:26:00,
2013-03-01 13:31:00,72.0,38.0,30.15,NNE,22,5.8,5.8,29,0.00,CLR,OVC,0.00,0.0,WeatherDisplay:10.37,2013-03-01 21:31:00,
2013-03-01 13:36:00,71.8,37.8,30.15,NNW,338,4.6,4.6,29,0.00,CLR,OVC,0.00,0.0,WeatherDisplay:10.37,2013-03-01 21:36:00,
2013-03-01 13:41:00,72.1,39.8,30.15,NNE,22,3.5,3.5,31,0.00,CLR,OVC,0.00,0.0,WeatherDisplay:10.37,2013-03-01 21:41:00,
2013-03-01 13:46:00,72.0,37.1,30.15,NW,315,5.8,5.8,28,0.00,CLR,OVC,0.00,0.0,WeatherDisplay:10.37,2013-03-01 21:46:00,
2013-03-01 13:51:00,72.1,39.0,30.13,North,0,3.5,3.6,30,0.00,CLR,OVC,0.00,0.0,WeatherDisplay:10.37,2013-03-01 21:51:00,
2013-03-01 13:56:00,72.7,37.7,30.13,NNE,22,4.6,4.6,28,0.00,CLR,OVC,0.00,0.0,WeatherDisplay:10.37,2013-03-01 21:56:00,
2013-03-01 14:01:00,72.9,37.8,30.13,North,0,2.3,3.2,28,0.00,CLR,OVC,0.00,0.0,WeatherDisplay:10.37,2013-03-01 22:01:00,
2013-03-01 14:06:00,72.7,36.8,30.13,NW,315,5.8,5.8,27,0.00,CLR,OVC,0.00,0.0,WeatherDisplay:10.37,2013-03-01 22:06:00,
2013-03-01 14:11:00,72.5,37.5,30.12,NW,315,2.3,3.5,28,0.00,CLR,OVC,0.00,0.0,WeatherDisplay:10.37,2013-03-01 22:11:00,
2013-03-01 14:16:00,72.9,37.8,30.12,West,270,4.6,4.6,28,0.00,CLR,OVC,0.00,0.0,WeatherDisplay:10.37,2013-03-01 22:16:00,
2013-03-01 14:21:00,72.9,37.8,30.12,NW,315,6.9,6.9,28,0.00,CLR,OVC,0.00,0.0,WeatherDisplay:10.37,2013-03-01 22:21:00,
2013-03-01 14:26:00,72.9,37.8,30.12,NW,315,2.3,3.3,28,0.00,CLR,OVC,0.00,0.0,WeatherDisplay:10.37,2013-03-01 22:26:00,
2013-03-01 14:31:00,72.9,36.9,30.12,West,270,4.6,4.6,27,0.00,CLR,OVC,0.00,0.0,WeatherDisplay:10.37,2013-03-01 22:31:00,
2013-03-01 14:36:00,73.0,37.1,30.12,NNW,338,4.6,4.6,27,0.00,CLR,OVC,0.00,0.0,WeatherDisplay:10.37,2013-03-01 22:36:00,
2013-03-01 14:41:00,72.7,34.8,30.12,NE,45,2.3,2.6,25,0.00,CLR,OVC,0.00,0.0,WeatherDisplay:10.37,2013-03-01 22:41:00,
2013-03-01 14:46:00,72.7,35.8,30.12,WNW,292,4.6,4.6,26,0.00,CLR,OVC,0.00,0.0,WeatherDisplay:10.37,2013-03-01 22:46:00,
2013-03-01 14:51:00,72.5,35.6,30.10,WNW,292,4.6,4.6,26,0.00,CLR,OVC,0.00,0.0,WeatherDisplay:10.37,2013-03-01 22:51:00,
2013-03-01 14:56:00,72.9,36.9,30.10,WNW,292,3.5,3.5,27,0.00,CLR,OVC,0.00,0.0,WeatherDisplay:10.37,2013-03-01 22:56:00,
2013-03-01 15:01:00,73.0,37.1,30.10,NW,315,2.3,2.3,27,0.00,CLR,OVC,0.00,0.0,WeatherDisplay:10.37,2013-03-01 23:01:00,
2013-03-01 15:06:00,72.9,35.0,30.10,South,180,2.3,2.3,25,0.00,CLR,OVC,0.00,0.0,WeatherDisplay:10.37,2013-03-01 23:06:00,
2013-03-01 15:11:00,73.2,35.3,30.10,NW,315,1.2,1.8,25,0.00,CLR,OVC,0.00,0.0,WeatherDisplay:10.37,2013-03-01 23:11:00,
2013-03-01 15:16:00,73.0,34.1,30.10,NNW,338,5.8,5.8,24,0.00,CLR,OVC,0.00,0.0,WeatherDisplay:10.37,2013-03-01 23:16:00,
2013-03-01 15:21:00,73.2,36.3,30.10,West,270,3.5,3.5,26,0.00,CLR,OVC,0.00,0.0,WeatherDisplay:10.37,2013-03-01 23:21:00,
2013-03-01 15:26:00,73.2,35.3,30.10,SSW,202,3.5,3.5,25,0.00,CLR,OVC,0.00,0.0,WeatherDisplay:10.37,2013-03-01 23:26:00,
2013-03-01 15:31:00,73.2,35.3,30.10,NW,315,1.2,1.3,25,0.00,CLR,OVC,0.00,0.0,WeatherDisplay:10.37,2013-03-01 23:31:00,
2013-03-01 15:36:00,72.9,33.9,30.10,NNW,338,4.6,4.6,24,0.00,CLR,OVC,0.00,0.0,WeatherDisplay:10.37,2013-03-01 23:36:00,
2013-03-01 15:41:00,72.5,33.6,30.10,WNW,292,3.5,3.5,24,0.00,CLR,OVC,0.00,0.0,WeatherDisplay:10.37,2013-03-01 23:41:00,
2013-03-01 15:46:00,72.5,34.7,30.10,NW,315,3.5,3.5,25,0.00,CLR,OVC,0.00,0.0,WeatherDisplay:10.37,2013-03-01 23:46:00,
2013-03-01 15:51:00,72.7,34.8,30.09,West,270,4.6,4.6,25,0.00,CLR,OVC,0.00,0.0,WeatherDisplay:10.37,2013-03-01 23:51:00,
2013-03-01 15:56:00,72.5,33.6,30.09,NE,45,2.3,2.3,24,0.00,CLR,OVC,0.00,0.0,WeatherDisplay:10.37,2013-03-01 23:56:00,
2013-03-01 16:01:00,72.3,33.5,30.09,West,270,2.3,2.3,24,0.00,CLR,OVC,0.00,0.0,WeatherDisplay:10.37,2013-03-02 00:01:00,
2013-03-01 16:06:00,72.3,33.5,30.09,NW,315,2.3,2.3,24,0.00,CLR,OVC,0.00,0.0,WeatherDisplay:10.37,2013-03-02 00:06:00,
2013-03-01 16:11:00,72.1,33.3,30.08,NW,315,1.2,1.5,24,0.00,CLR,OVC,0.00,0.0,WeatherDisplay:10.37,2013-03-02 00:11:00,
2013-03-01 16:16:00,72.0,33.2,30.08,NW,315,3.5,3.5,24,0.00,CLR,OVC,0.00,0.0,WeatherDisplay:10.37,2013-03-02 00:16:00,
2013-03-01 16:21:00,71.8,33.0,30.08,WNW,292,4.6,4.6,24,0.00,CLR,OVC,0.00,0.0,WeatherDisplay:10.37,2013-03-02 00:21:00,
2013-03-01 16:26:00,71.6,32.9,30.08,WNW,292,3.5,3.5,24,0.00,CLR,OVC,0.00,0.0,WeatherDisplay:10.37,2013-03-02 00:26:00,
2013-03-01 16:31:00,71.8,33.0,30.08,NNE,22,1.8,2.2,24,0.00,CLR,OVC,0.00,0.0,WeatherDisplay:10.37,2013-03-02 00:31:00,
2013-03-01 16:36:00,71.6,32.9,30.08,NNW,338,2.3,2.3,24,0.00,CLR,OVC,0.00,0.0,WeatherDisplay:10.37,2013-03-02 00:36:00,
2013-03-01 16:41:00,71.6,32.9,30.08,NNW,338,1.2,2.1,24,0.00,CLR,OVC,0.00,0.0,WeatherDisplay:10.37,2013-03-02 00:41:00,
2013-03-01 16:46:00,71.6,32.9,30.08,West,270,2.3,2.3,24,0.00,CLR,OVC,0.00,0.0,WeatherDisplay:10.37,2013-03-02 00:46:00,
2013-03-01 16:51:00,71.4,33.7,30.08,SSE,158,2.3,2.3,25,0.00,CLR,OVC,0.00,0.0,WeatherDisplay:10.37,2013-03-02 00:51:00,
2013-03-01 16:56:00,71.2,33.6,30.08,NW,315,1.2,1.4,25,0.00,CLR,OVC,0.00,0.0,WeatherDisplay:10.37,2013-03-02 00:56:00,
2013-03-01 17:01:00,71.1,33.4,30.08,WNW,292,3.5,3.5,25,0.00,CLR,OVC,0.00,0.0,WeatherDisplay:10.37,2013-03-02 01:01:00,
2013-03-01 17:06:00,70.9,34.3,30.08,NW,315,3.5,3.5,26,0.00,CLR,OVC,0.00,0.0,WeatherDisplay:10.37,2013-03-02 01:06:00,
2013-03-01 17:11:00,70.7,34.1,30.07,West,270,3.5,3.5,26,0.00,CLR,OVC,0.00,0.0,WeatherDisplay:10.37,2013-03-02 01:11:00,
2013-03-01 17:16:00,70.5,34.0,30.07,WSW,248,2.3,2.3,26,0.00,CLR,OVC,0.00,0.0,WeatherDisplay:10.37,2013-03-02 01:16:00,
2013-03-01 17:21:00,70.3,34.8,30.07,West,270,0.0,1.2,27,0.00,CLR,OVC,0.00,0.0,WeatherDisplay:10.37,2013-03-02 01:21:00,
2013-03-01 17:26:00,70.0,35.4,30.07,West,270,1.2,1.2,28,0.00,CLR,OVC,0.00,0.0,WeatherDisplay:10.37,2013-03-02 01:26:00,
2013-03-01 17:31:00,69.8,35.2,30.07,WSW,248,0.0,0.3,28,0.00,CLR,OVC,0.00,0.0,WeatherDisplay:10.37,2013-03-02 01:31:00,
2013-03-01 17:36:00,69.6,36.8,30.07,WNW,292,1.2,1.2,30,0.00,CLR,OVC,0.00,0.0,WeatherDisplay:10.37,2013-03-02 01:36:00,
2013-03-01 17:41:00,69.4,36.6,30.07,WSW,248,0.0,0.3,30,0.00,CLR,OVC,0.00,0.0,WeatherDisplay:10.37,2013-03-02 01:41:00,
2013-03-01 17:46:00,69.1,37.2,30.07,WSW,248,0.0,0.0,31,0.00,CLR,OVC,0.00,0.0,WeatherDisplay:10.37,2013-03-02 01:46:00,
2013-03-01 17:51:00,68.7,36.8,30.07,WSW,248,0.0,0.0,31,0.00,CLR,OVC,0.00,0.0,WeatherDisplay:10.37,2013-03-02 01:51:00,
2013-03-01 17:56:00,68.4,37.3,30.07,North,0,0.0,0.0,32,0.00,CLR,OVC,0.00,0.0,WeatherDisplay:10.37,2013-03-02 01:56:00,
2013-03-01 18:01:00,68.0,37.0,30.07,NNE,22,0.0,0.0,32,0.00,CLR,OVC,0.00,0.0,WeatherDisplay:10.37,2013-03-02 02:01:00,
2013-03-01 18:06:00,67.8,37.6,30.07,NE,45,0.0,0.0,33,0.00,CLR,OVC,0.00,0.0,WeatherDisplay:10.37,2013-03-02 02:06:00,
2013-03-01 18:11:00,67.5,37.3,30.07,North,0,0.0,0.0,33,0.00,CLR,OVC,0.00,0.0,WeatherDisplay:10.37,2013-03-02 02:11:00,
2013-03-01 18:16:00,67.3,37.2,30.07,NW,315,0.0,0.0,33,0.00,CLR,OVC,0.00,0.0,WeatherDisplay:10.37,2013-03-02 02:16:00,
2013-03-01 18:21:00,66.7,37.5,30.07,East,90,0.0,0.0,34,0.00,CLR,OVC,0.00,0.0,WeatherDisplay:10.37,2013-03-02 02:21:00,
2013-03-01 18:26:00,66.4,37.1,30.07,ESE,112,0.0,0.0,34,0.00,CLR,OVC,0.00,0.0,WeatherDisplay:10.37,2013-03-02 02:26:00,
2013-03-01 18:31:00,65.8,37.4,30.08,ESE,112,0.0,0.0,35,0.00,CLR,OVC,0.00,0.0,WeatherDisplay:10.37,2013-03-02 02:31:00,
2013-03-01 18:36:00,65.5,37.8,30.08,SW,225,0.0,0.0,36,0.00,CLR,OVC,0.00,0.0,WeatherDisplay:10.37,2013-03-02 02:36:00,
2013-03-01 18:41:00,65.1,37.5,30.08,NE,45,0.0,0.0,36,0.00,CLR,OVC,0.00,0.0,WeatherDisplay:10.37,2013-03-02 02:41:00,
2013-03-01 18:46:00,64.9,37.3,30.08,East,90,0.0,0.0,36,0.00,CLR,OVC,0.00,0.0,WeatherDisplay:10.37,2013-03-02 02:46:00,
2013-03-01 18:51:00,64.4,37.5,30.07,ESE,112,0.0,0.0,37,0.00,CLR,OVC,0.00,0.0,WeatherDisplay:10.37,2013-03-02 02:51:00,
2013-03-01 18:56:00,64.2,37.4,30.07,ENE,68,0.0,0.0,37,0.00,CLR,OVC,0.00,0.0,WeatherDisplay:10.37,2013-03-02 02:56:00,
2013-03-01 19:01:00,64.0,37.9,30.07,NE,45,0.0,0.0,38,0.00,CLR,OVC,0.00,0.0,WeatherDisplay:10.37,2013-03-02 03:01:00,
2013-03-01 19:06:00,63.7,37.6,30.07,East,90,0.0,0.0,38,0.00,CLR,OVC,0.00,0.0,WeatherDisplay:10.37,2013-03-02 03:06:00,
2013-03-01 19:11:00,63.3,37.3,30.07,NW,315,0.0,0.0,38,0.00,CLR,OVC,0.00,0.0,WeatherDisplay:10.37,2013-03-02 03:11:00,
2013-03-01 19:16:00,63.1,37.8,30.07,SE,135,0.0,0.0,39,0.00,CLR,OVC,0.00,0.0,WeatherDisplay:10.37,2013-03-02 03:16:00,
2013-03-01 19:21:00,62.8,37.4,30.07,NW,315,0.0,0.0,39,0.00,CLR,OVC,0.00,0.0,WeatherDisplay:10.37,2013-03-02 03:21:00,
2013-03-01 19:26:00,62.4,37.8,30.07,SSE,158,0.0,0.0,40,0.00,CLR,OVC,0.00,0.0,WeatherDisplay:10.37,2013-03-02 03:26:00,
2013-03-01 19:31:00,61.9,37.3,30.08,SW,225,1.2,1.2,40,0.00,CLR,OVC,0.00,0.0,WeatherDisplay:10.37,2013-03-02 03:31:00,
2013-03-01 19:36:00,61.5,37.0,30.08,ESE,112,0.0,0.1,40,0.00,CLR,OVC,0.00,0.0,WeatherDisplay:10.37,2013-03-02 03:36:00,
2013-03-01 19:41:00,61.5,37.6,30.08,NW,315,0.0,0.0,41,0.00,CLR,OVC,0.00,0.0,WeatherDisplay:10.37,2013-03-02 03:41:00,
2013-03-01 19:46:00,61.3,38.0,30.08,WNW,292,0.0,0.0,42,0.00,CLR,OVC,0.00,0.0,WeatherDisplay:10.37,2013-03-02 03:46:00,
2013-03-01 19:51:00,61.2,37.9,30.08,WNW,292,0.0,0.0,42,0.00,CLR,OVC,0.00,0.0,WeatherDisplay:10.37,2013-03-02 03:51:00,
2013-03-01 19:56:00,60.8,38.1,30.08,WNW,292,0.0,0.0,43,0.00,CLR,OVC,0.00,0.0,WeatherDisplay:10.37,2013-03-02 03:56:00,
2013-03-01 20:01:00,60.6,38.6,30.08,West,270,0.0,0.0,44,0.00,CLR,OVC,0.00,0.0,WeatherDisplay:10.37,2013-03-02 04:01:00,
2013-03-01 20:06:00,60.4,39.0,30.08,WSW,248,0.0,0.0,45,0.00,CLR,OVC,0.00,0.0,WeatherDisplay:10.37,2013-03-02 04:06:00,
2013-03-01 20:11:00,60.1,38.7,30.08,SE,135,0.0,0.0,45,0.00,CLR,OVC,0.00,0.0,WeatherDisplay:10.37,2013-03-02 04:11:00,
2013-03-01 20:16:00,60.1,38.7,30.08,NNW,338,0.0,0.0,45,0.00,CLR,OVC,0.00,0.0,WeatherDisplay:10.37,2013-03-02 04:16:00,
2013-03-01 20:21:00,59.7,38.9,30.08,SE,135,0.0,0.0,46,0.00,CLR,OVC,0.00,0.0,WeatherDisplay:10.37,2013-03-02 04:21:00,
2013-03-01 20:26:00,59.4,38.6,30.08,SW,225,0.0,0.0,46,0.00,CLR,OVC,0.00,0.0,WeatherDisplay:10.37,2013-03-02 04:26:00,
2013-03-01 20:31:00,59.0,38.8,30.09,SE,135,0.0,0.0,47,0.00,CLR,OVC,0.00,0.0,WeatherDisplay:10.37,2013-03-02 04:31:00,
2013-03-01 20:36:00,58.8,38.6,30.09,NNE,22,0.0,0.0,47,0.00,CLR,OVC,0.00,0.0,WeatherDisplay:10.37,2013-03-02 04:36:00,
2013-03-01 20:41:00,58.6,39.0,30.09,ENE,68,0.0,0.0,48,0.00,CLR,OVC,0.00,0.0,WeatherDisplay:10.37,2013-03-02 04:41:00,
2013-03-01 20:46:00,58.6,39.0,30.09,NNE,22,0.0,0.0,48,0.00,CLR,OVC,0.00,0.0,WeatherDisplay:10.37,2013-03-02 04:46:00,
2013-03-01 20:51:00,58.5,38.8,30.09,NNE,22,0.0,0.0,48,0.00,CLR,OVC,0.00,0.0,WeatherDisplay:10.37,2013-03-02 04:51:00,
2013-03-01 20:56:00,58.3,38.7,30.09,NNE,22,0.0,0.0,48,0.00,CLR,OVC,0.00,0.0,WeatherDisplay:10.37,2013-03-02 04:56:00,
2013-03-01 21:00:00,57.9,38.9,30.09,NNE,22,0.0,0.0,49,0.00,CLR,OVC,0.00,0.0,WeatherDisplay:10.37,2013-03-02 05:00:00,
2013-03-01 21:01:00,57.9,38.9,30.09,NNE,22,0.0,0.0,49,0.00,CLR,OVC,0.00,0.0,WeatherDisplay:10.37,2013-03-02 05:01:00,
2013-03-01 21:06:00,57.7,38.7,30.09,NNW,338,0.0,0.0,49,0.00,CLR,OVC,0.00,0.0,WeatherDisplay:10.37,2013-03-02 05:06:00,
2013-03-01 21:11:00,57.7,38.7,30.10,NE,45,0.0,0.0,49,0.00,CLR,OVC,0.00,0.0,WeatherDisplay:10.37,2013-03-02 05:11:00,
2013-03-01 21:16:00,57.6,38.5,30.10,NW,315,0.0,0.0,49,0.00,CLR,OVC,0.00,0.0,WeatherDisplay:10.37,2013-03-02 05:16:00,
2013-03-01 21:21:00,57.2,38.2,30.10,WNW,292,0.0,0.0,49,0.00,CLR,OVC,0.00,0.0,WeatherDisplay:10.37,2013-03-02 05:21:00,
2013-03-01 21:26:00,57.0,38.5,30.10,West,270,0.0,0.0,50,0.00,CLR,OVC,0.00,0.0,WeatherDisplay:10.37,2013-03-02 05:26:00,
2013-03-01 21:31:00,56.8,38.4,30.10,NNW,338,0.0,0.0,50,0.00,CLR,OVC,0.00,0.0,WeatherDisplay:10.37,2013-03-02 05:31:00,
2013-03-01 21:36:00,56.8,38.4,30.10,West,270,0.0,0.0,50,0.00,CLR,OVC,0.00,0.0,WeatherDisplay:10.37,2013-03-02 05:36:00,
2013-03-01 21:41:00,56.8,38.4,30.10,West,270,0.0,0.0,50,0.00,CLR,OVC,0.00,0.0,WeatherDisplay:10.37,2013-03-02 05:41:00,
2013-03-01 21:46:00,56.5,38.6,30.10,NNW,338,0.0,0.0,51,0.00,CLR,OVC,0.00,0.0,WeatherDisplay:10.37,2013-03-02 05:46:00,
2013-03-01 21:51:00,56.5,38.6,30.09,NNW,338,0.0,0.0,51,0.00,CLR,OVC,0.00,0.0,WeatherDisplay:10.37,2013-03-02 05:51:00,
2013-03-01 21:56:00,56.3,38.4,30.09,East,90,0.0,0.0,51,0.00,CLR,OVC,0.00,0.0,WeatherDisplay:10.37,2013-03-02 05:56:00,
2013-03-01 22:01:00,55.9,38.1,30.09,ENE,68,0.0,0.0,51,0.00,CLR,OVC,0.00,0.0,WeatherDisplay:10.37,2013-03-02 06:01:00,
2013-03-01 22:06:00,55.8,38.4,30.09,ENE,68,0.0,0.0,52,0.00,CLR,OVC,0.00,0.0,WeatherDisplay:10.37,2013-03-02 06:06:00,
2013-03-01 22:11:00,55.4,38.1,30.09,SE,135,0.0,0.0,52,0.00,CLR,OVC,0.00,0.0,WeatherDisplay:10.37,2013-03-02 06:11:00,
2013-03-01 22:16:00,55.2,38.9,30.09,ESE,112,0.0,0.0,54,0.00,CLR,OVC,0.00,0.0,WeatherDisplay:10.37,2013-03-02 06:16:00,
2013-03-01 22:21:00,55.2,38.9,30.09,SE,135,0.0,0.0,54,0.00,CLR,OVC,0.00,0.0,WeatherDisplay:10.37,2013-03-02 06:21:00,
2013-03-01 22:26:00,55.0,38.7,30.09,NNE,22,0.0,0.0,54,0.00,CLR,OVC,0.00,0.0,WeatherDisplay:10.37,2013-03-02 06:26:00,
2013-03-01 22:31:00,55.0,38.7,30.08,NW,315,0.0,0.0,54,0.00,CLR,OVC,0.00,0.0,WeatherDisplay:10.37,2013-03-02 06:31:00,
2013-03-01 22:36:00,54.9,38.5,30.08,NNW,338,0.0,0.0,54,0.00,CLR,OVC,0.00,0.0,WeatherDisplay:10.37,2013-03-02 06:36:00,
2013-03-01 22:41:00,54.7,38.4,30.08,East,90,0.0,0.0,54,0.00,CLR,OVC,0.00,0.0,WeatherDisplay:10.37,2013-03-02 06:41:00,
2013-03-01 22:46:00,54.3,38.5,30.08,SE,135,0.0,0.0,55,0.00,CLR,OVC,0.00,0.0,WeatherDisplay:10.37,2013-03-02 06:46:00,
2013-03-01 22:51:00,54.1,38.3,30.09,NW,315,0.0,0.0,55,0.00,CLR,OVC,0.00,0.0,WeatherDisplay:10.37,2013-03-02 06:51:00,
2013-03-01 22:56:00,54.1,38.3,30.09,ESE,112,0.0,0.0,55,0.00,CLR,OVC,0.00,0.0,WeatherDisplay:10.37,2013-03-02 06:56:00,
2013-03-01 23:01:00,54.0,38.6,30.09,West,270,0.0,0.0,56,0.00,CLR,OVC,0.00,0.0,WeatherDisplay:10.37,2013-03-02 07:01:00,
2013-03-01 23:06:00,53.8,38.4,30.09,ESE,112,0.0,0.0,56,0.00,CLR,OVC,0.00,0.0,WeatherDisplay:10.37,2013-03-02 07:06:00,
2013-03-01 23:11:00,53.6,38.3,30.09,ENE,68,0.0,0.0,56,0.00,CLR,OVC,0.00,0.0,WeatherDisplay:10.37,2013-03-02 07:11:00,
2013-03-01 23:16:00,53.6,38.3,30.09,NNW,338,0.0,0.0,56,0.00,CLR,OVC,0.00,0.0,WeatherDisplay:10.37,2013-03-02 07:16:00,
2013-03-01 23:21:00,53.4,38.1,30.09,NNW,338,0.0,0.0,56,0.00,CLR,OVC,0.00,0.0,WeatherDisplay:10.37,2013-03-02 07:21:00,
2013-03-01 23:26:00,53.1,38.2,30.09,ENE,68,0.0,0.0,57,0.00,CLR,OVC,0.00,0.0,WeatherDisplay:10.37,2013-03-02 07:26:00,
2013-03-01 23:31:00,53.1,38.2,30.09,ESE,112,0.0,0.0,57,0.00,CLR,OVC,0.00,0.0,WeatherDisplay:10.37,2013-03-02 07:31:00,
2013-03-01 23:36:00,52.9,38.1,30.09,SE,135,0.0,0.0,57,0.00,CLR,OVC,0.00,0.0,WeatherDisplay:10.37,2013-03-02 07:36:00,
2013-03-01 23:41:00,52.7,37.9,30.09,East,90,0.0,0.0,57,0.00,CLR,OVC,0.00,0.0,WeatherDisplay:10.37,2013-03-02 07:41:00,
2013-03-01 23:46:00,52.5,37.7,30.09,East,90,0.0,0.0,57,0.00,CLR,OVC,0.00,0.0,WeatherDisplay:10.37,2013-03-02 07:46:00,
2013-03-01 23:51:00,52.5,38.2,30.09,SE,135,0.0,0.0,58,0.00,CLR,OVC,0.00,0.0,WeatherDisplay:10.37,2013-03-02 07:51:00,
2013-03-01 23:56:00,52.5,38.2,30.09,East,90,0.0,0.0,58,0.00,CLR,OVC,0.00,0.0,WeatherDisplay:10.37,2013-03-02 07:56:00,